Overview Statistics Trail Chart Weather Telemetry Raw packets
 

This is the latest recevied weather packets stored in our database for station/object HB9FHL-13. If no packets are shown the sender has not sent any weather packets the latest 10 day(s).

<< 18 19 20 21 22 23 24 >>
Time Temp. Humidity Pressure Rain* Wind** Luminosity Snow
1788560528 26.67° C - 1018.4 hPa 0 mm - - -
1788560228 25.56° C - 1025.3 hPa 0 mm - - -
1788560015 25.56° C - 1021.6 hPa 0 mm - - -
1788559928 25.56° C - 1021.6 hPa 0 mm - - -
1788559627 25° C - 1016.2 hPa 0 mm - - -
1788559327 25° C - 1022.1 hPa 0 mm - - -
1788559026 25° C - 1018.1 hPa 0 mm - - -
1788558726 25° C - 1019.8 hPa 0 mm - - -
1788558463 25° C - 1024.2 hPa 0 mm - - -
1788558441 25° C - 1024.2 hPa 0 mm - - -
1788558125 25° C - 1022.6 hPa 0 mm - - -
1788557824 26.11° C - 1019.9 hPa 0 mm - - -
1788557524 25° C - 1018.5 hPa 0 mm - - -
1788557223 25° C - 1017.8 hPa 0 mm - - -
1788556923 24.44° C - 1020.3 hPa 0 mm - - -
1788556628 24.44° C - 1018.3 hPa 0 mm - - -
1788556320 24.44° C - 1025.2 hPa 0 mm - - -
1788556021 24.44° C - 1021.4 hPa 0 mm - - -
1788555418 25° C - 1021.6 hPa 0 mm - - -
1788554852 25.56° C - 1022.2 hPa 0 mm - - -
1788554842 25.56° C - 1022.2 hPa 0 mm - - -
1788554516 25.56° C - 1021.1 hPa 0 mm - - -
1788553949 23.89° C - 1020.8 hPa 0 mm - - -
1788553915 23.89° C - 1020.8 hPa 0 mm - - -
1788553615 24.44° C - 1020.3 hPa 0 mm - - -

* Rain since midnight (hover to see other rain measurements)
** Current wind speed in m/s (hover to see current wind gust speed)